(21190) Martamaffei = 1994 JQ = 1998 HU85

Discovered at Stroncone on 1994-05-10 by A. Vagnozzi.
(21190) Martamaffei

Marta Maffei (b. 1957) is the founder of a cultural center for the promotion of scientific studies dedicated to her father, the Italian astronomer Paolo Maffei. She is active in the cultural life of the city of Foligno, and she is a member of the Fulginia Academy of Arts, Letters and Sciences. [Ref: WGSBN Bull. 2, #13, 6]

Orbit

Orbit type: Main Belt

Note: WebGL enabled browser required.

epoch2023-09-13.0
epoch JD2460200.5
perihelion date2020-09-16.39417
perihelion JD2459108.89417
argument of perihelion (°)7.84541
ascending node (°)39.84812
inclination (°)2.32558
eccentricity0.0524110
perihelion distance (AU)2.4033823
Tisserand w.r.t. Jupiter3.4
ΔV w.r.t. Earth (km/sec)9.7
semimajor axis (AU)2.5363130
mean anomaly (°)266.35779
mean daily motion (°/day)0.24400550
aphelion distance (AU)2.669
period (years)4.04
P-vector [x]0.67316814
P-vector [y]0.67624602
P-vector [z]0.29922562
Q-vector [x]-0.73903222
Q-vector [y]0.60098898
Q-vector [z]0.30437415
absolute magnitude15.25
phase slope0.15
uncertainty0
referenceMPEC 2024-A48
observations used1260
oppositions21
arc length (days)10715
first opposition used1994
last opposition used2023
residual rms (arc-secs)0.67
perturbers coarse indicatorM-v
perturbers precise indicator003Ek
first observation date used1994-04-13.0
last observation date used2023-08-14.0
computer nameMPCLINUX
JD of orbit computation2456847.722778
perihelion JD uncertainty (days)1.6692E-04
argument of perihelion uncertainty (°)9.7385E-05
ascending node uncertainty (°)8.9048E-05
inclination uncertainty (°)5.3243E-06
eccentricity uncertainty 4.9515E-08
perihelion distance uncertainty (AU)1.2436E-07
Minimum Orbit Intersection Distances (in AU)
for orbit epoch: 2460200.5, reference: E2024-A48
Mercury2.07993
Venus1.68111
Earth1.41177
Mars0.85313
Jupiter2.50887
Saturn6.61179
Uranus15.8433
Neptune27.4255

Observations

1291 total observations over interval: 1994 04 13.46037 – 2023 08 14.153573
These data are available for download (format description).

Date (UT) J2000 RA J2000 Dec Magn Location Ref
1994 04 13.46037 14 39 42.09 -15 13 37.8 18.9 V 691 – Steward Observatory, Kitt Peak-Spacewatch MPC 23599
1994 04 13.47366 14 39 41.42 -15 13 35.5   691 – Steward Observatory, Kitt Peak-Spacewatch MPC 23599
1994 04 13.48735 14 39 40.74 -15 13 33.1   691 – Steward Observatory, Kitt Peak-Spacewatch MPC 23599
1994 05 10.87124 14 14 54.38 -13 37 18.1 19.6 V 589 – Santa Lucia Stroncone MPC 23583
1994 05 10.88306 14 14 53.72 -13 37 16.0   589 – Santa Lucia Stroncone MPC 23583
1994 05 10.91779 14 14 51.96 -13 37 07.3   589 – Santa Lucia Stroncone MPC 23583
1994 05 10.92286 14 14 51.66 -13 37 06.5   589 – Santa Lucia Stroncone MPC 23583
1994 05 11.87542 14 14 02.59 -13 33 47.8 19.7 V 589 – Santa Lucia Stroncone MPC 23583
1994 05 11.88525 14 14 02.06 -13 33 44.7   589 – Santa Lucia Stroncone MPC 23583
1994 05 11.89530 14 14 01.59 -13 33 43.5   589 – Santa Lucia Stroncone MPC 23584
1994 05 11.91093 14 14 00.72 -13 33 39.9   589 – Santa Lucia Stroncone MPC 23584
1994 05 14.90722 14 11 31.42 -13 23 31.6 19.8 V 589 – Santa Lucia Stroncone MPC 23584
1994 05 14.91528 14 11 31.04 -13 23 30.7   589 – Santa Lucia Stroncone MPC 23584
1994 05 15.88869 14 10 44.38 -13 20 19.7 19.7 V 589 – Santa Lucia Stroncone MPC 23584
1994 05 15.89654 14 10 43.84 -13 20 17.2   589 – Santa Lucia Stroncone MPC 23584
1994 05 15.90124 14 10 43.72 -13 20 16.9   589 – Santa Lucia Stroncone MPC 23584
1998 04 21.29695 14 12 22.80 -12 52 38.0 18.8   704 – Lincoln Laboratory ETS, New Mexico MPS 1359
1998 04 21.31709 14 12 21.66 -12 52 33.2 19.3   704 – Lincoln Laboratory ETS, New Mexico MPS 1359
1998 04 21.33735 14 12 20.48 -12 52 28.5 19.2   704 – Lincoln Laboratory ETS, New Mexico MPS 1359
1998 04 21.35751 14 12 19.30 -12 52 23.7 19.4   704 – Lincoln Laboratory ETS, New Mexico MPS 1359
1998 04 21.37822 14 12 18.06 -12 52 19.0 19.2   704 – Lincoln Laboratory ETS, New Mexico MPS 1359
1998 04 22.25519 14 11 29.51 -12 48 52.3 19.0   704 – Lincoln Laboratory ETS, New Mexico MPS 1359
1998 04 22.27405 14 11 28.58 -12 48 46.1 19.6   704 – Lincoln Laboratory ETS, New Mexico MPS 1359
1998 04 22.29292 14 11 27.36 -12 48 44.8 18.8   704 – Lincoln Laboratory ETS, New Mexico MPS 1359
1998 04 22.31183 14 11 26.29 -12 48 41.1 18.8   704 – Lincoln Laboratory ETS, New Mexico MPS 1359
1998 04 22.33095 14 11 25.10 -12 48 36.3 19.2   704 – Lincoln Laboratory ETS, New Mexico MPS 1359
1998 05 01.26533 14 03 08.77 -12 13 17.4 18.8   704 – Lincoln Laboratory ETS, New Mexico MPS 1682
1998 05 01.28412 14 03 07.63 -12 13 12.6 18.8   704 – Lincoln Laboratory ETS, New Mexico MPS 1682
1998 05 01.30301 14 03 06.57 -12 13 08.1 19.2   704 – Lincoln Laboratory ETS, New Mexico MPS 1682
1998 05 01.32194 14 03 05.49 -12 13 03.5 19.2   704 – Lincoln Laboratory ETS, New Mexico MPS 1682
1998 05 01.34086 14 03 04.51 -12 12 58.9 19.2   704 – Lincoln Laboratory ETS, New Mexico MPS 1682
1998 06 02.19521 13 42 14.67 -10 46 37.0 19.3 V 691 – Steward Observatory, Kitt Peak-Spacewatch MPS 1359
1998 06 02.21659 13 42 14.27 -10 46 36.1 19.3 V 691 – Steward Observatory, Kitt Peak-Spacewatch MPS 1359
1998 06 02.23798 13 42 13.81 -10 46 34.7 19.8 V 691 – Steward Observatory, Kitt Peak-Spacewatch MPS 1359
1999 08 07.29551 22 00 41.89 -16 12 50.1 18.0 R 699 – Lowell Observatory-LONEOS MPS 60534
1999 08 07.32096 22 00 40.70 -16 12 57.2   699 – Lowell Observatory-LONEOS MPS 60534
1999 08 07.34641 22 00 39.31 -16 13 04.3   699 – Lowell Observatory-LONEOS MPS 60534
1999 09 07.27871 21 33 41.41 -18 14 39.1 18.8   704 – Lincoln Laboratory ETS, New Mexico MPS 24761
1999 09 07.27877 21 33 41.42 -18 14 40.0 18.7   704 – Lincoln Laboratory ETS, New Mexico MPS 24761
1999 09 07.29092 21 33 40.86 -18 14 41.3 19.3   704 – Lincoln Laboratory ETS, New Mexico MPS 24761
1999 09 07.29098 21 33 40.82 -18 14 41.8 19.1   704 – Lincoln Laboratory ETS, New Mexico MPS 24761
1999 09 07.30343 21 33 40.27 -18 14 43.0 19.0   704 – Lincoln Laboratory ETS, New Mexico MPS 24761
1999 09 07.31554 21 33 39.76 -18 14 44.4 19.3   704 – Lincoln Laboratory ETS, New Mexico MPS 24761
1999 09 07.31561 21 33 39.79 -18 14 46.3 19.7   704 – Lincoln Laboratory ETS, New Mexico MPS 24761
1999 09 07.32766 21 33 39.19 -18 14 45.6 19.0   704 – Lincoln Laboratory ETS, New Mexico MPS 24761
2000 09 29.45285 06 29 37.96 +24 38 02.6 21.1 V 734 – Farpoint Observatory, Eskridge MPS 24761
2000 09 29.46006 06 29 38.14 +24 38 02.6 21.1 V 734 – Farpoint Observatory, Eskridge MPS 24761
2000 11 29.38685 06 51 34.44 +25 39 24.5 18.5   704 – Lincoln Laboratory ETS, New Mexico MPS 24761
2000 11 29.40287 06 51 33.83 +25 39 26.5 18.7   704 – Lincoln Laboratory ETS, New Mexico MPS 24761
2000 11 29.41900 06 51 33.17 +25 39 28.2 19.1   704 – Lincoln Laboratory ETS, New Mexico MPS 24761
2000 11 29.43561 06 51 32.59 +25 39 30.0 19.1   704 – Lincoln Laboratory ETS, New Mexico MPS 24761
2000 11 29.45039 06 51 32.10 +25 39 32.1 19.5   704 – Lincoln Laboratory ETS, New Mexico MPS 24762
2000 12 30.32917 06 22 33.79 +26 35 36.5 18.7   704 – Lincoln Laboratory ETS, New Mexico MPS 23469
2000 12 30.34455 06 22 32.72 +26 35 37.7 18.7   704 – Lincoln Laboratory ETS, New Mexico MPS 23469
2000 12 30.35975 06 22 31.77 +26 35 38.2 18.5   704 – Lincoln Laboratory ETS, New Mexico MPS 23469
2001 01 02.25986 06 19 23.31 +26 38 17.0 17.3   704 – Lincoln Laboratory ETS, New Mexico MPS 23469
2001 01 02.27503 06 19 22.41 +26 38 17.6 17.3   704 – Lincoln Laboratory ETS, New Mexico MPS 23469
2001 01 02.29174 06 19 21.27 +26 38 18.3 16.7   704 – Lincoln Laboratory ETS, New Mexico MPS 23469
2001 01 03.29758 06 18 16.87 +26 39 05.1 18.0   704 – Lincoln Laboratory ETS, New Mexico MPS 23469
2001 01 03.31377 06 18 15.79 +26 39 06.0 18.1   704 – Lincoln Laboratory ETS, New Mexico MPS 23469
2001 01 03.32900 06 18 14.78 +26 39 06.6 18.3   704 – Lincoln Laboratory ETS, New Mexico MPS 23469
2001 01 03.34425 06 18 13.82 +26 39 07.1 17.8   704 – Lincoln Laboratory ETS, New Mexico MPS 23469
2001 01 03.35950 06 18 12.81 +26 39 08.2 17.7   704 – Lincoln Laboratory ETS, New Mexico MPS 23469
2001 01 20.22913 06 02 55.52 +26 41 57.8 18.4   704 – Lincoln Laboratory ETS, New Mexico MPS 24762
2001 01 20.24414 06 02 54.85 +26 41 58.4 18.8   704 – Lincoln Laboratory ETS, New Mexico MPS 24762
2001 01 20.26038 06 02 54.16 +26 41 57.8 18.0   704 – Lincoln Laboratory ETS, New Mexico MPS 24762
2001 01 20.27543 06 02 53.54 +26 41 57.5 18.8   704 – Lincoln Laboratory ETS, New Mexico MPS 24762
2001 01 20.29071 06 02 52.82 +26 41 57.1 19.1   704 – Lincoln Laboratory ETS, New Mexico MPS 24762
2002 04 05.28938 14 05 15.71 -11 47 32.3 18.6 R 699 – Lowell Observatory-LONEOS MPS 56468
2002 04 05.30267 14 05 15.05 -11 47 29.4   699 – Lowell Observatory-LONEOS MPS 56468
2002 04 05.31631 14 05 14.32 -11 47 26.4   699 – Lowell Observatory-LONEOS MPS 56468
2002 04 05.32953 14 05 13.70 -11 47 23.8   699 – Lowell Observatory-LONEOS MPS 56468
2002 04 09.32227 14 01 53.24 -11 32 38.9 18.9   704 – Lincoln Laboratory ETS, New Mexico MPS 56468
2002 04 09.34572 14 01 51.87 -11 32 34.5 18.7   704 – Lincoln Laboratory ETS, New Mexico MPS 56468
2002 04 09.35741 14 01 51.31 -11 32 31.2 19.5   704 – Lincoln Laboratory ETS, New Mexico MPS 56468
2002 04 14.27868 13 57 29.72 -11 12 59.5 18.5   704 – Lincoln Laboratory ETS, New Mexico MPS 56468
2002 04 14.29273 13 57 28.90 -11 12 57.4 19.4   704 – Lincoln Laboratory ETS, New Mexico MPS 56468
2002 04 14.30681 13 57 28.18 -11 12 52.9 19.8   704 – Lincoln Laboratory ETS, New Mexico MPS 56468
2002 04 14.32092 13 57 27.35 -11 12 49.2 19.9   704 – Lincoln Laboratory ETS, New Mexico MPS 56468
2002 04 14.33500 13 57 26.57 -11 12 47.0 19.2   704 – Lincoln Laboratory ETS, New Mexico MPS 56468
2002 04 14.39046 13 57 23.49 -11 12 32.6 18.2   644 – Palomar Mountain/NEAT MPS 56468
2002 04 14.41423 13 57 22.14 -11 12 26.6 18.3   644 – Palomar Mountain/NEAT MPS 56468
